Location: *
(34.6903°N, 135.5184°E)
Time: 11:08:35
(UTC+00:00)

Meteor PRIRODA - Pass Details

Date: 22 September 2019
Orbit: 492 x 510 km, 97.5° (Epoch: 17 October)

Event Time Altitude Azimuth Distance (km) Brightness Sun altitude
Rises 19:57:33 0° 6° (N) 2,602 7.5 -10.8°
Reaches altitude 10° 19:59:39 10° 2° (N) 1,717 6.5 -10.3°
Maximum altitude 20:03:17 56° 284° (WNW) 604 3.7 -9.6°
Drops below altitude 10° 20:06:54 10° 206° (SSW) 1,714 6.0 -8.9°
Sets 20:09:00 0° 202° (SSW) 2,597 7.0 -8.4°
